Victoria, British Columbia

3:25 AM PST on December 07, 2016 (GMT -0800)
Victoria International

Weather History for CYYJ - March, 2013

Change the Weather History Date:

Sunday, March 3, 2013

  Actual Average Record
Temperature  
Mean Temperature 40 °F -  
Max Temperature 50 °F 46 °F 55 °F (2005)
Min Temperature 29 °F 34 °F 29 °F (2013)
Degree Days  
Heating Degree Days 26    
Moisture  
Dew Point 30 °F    
Average Humidity 69    
Maximum Humidity 93    
Minimum Humidity 37    
Precipitation  
Precipitation 0.00 in - - ()
Sea Level Pressure  
Sea Level Pressure 30.26 in    
Wind  
Wind Speed 4 mph ()    
Max Wind Speed 9 mph    
Max Gust Speed -    
Averages and records for this station are not official NWS values.
T = Trace of Precipitation, MM = Missing Value Source: Averaged Metar Reports

Daily Weather History Graph

Daily Weather History Graph

Search for Another Location

Airport or City:

Trip Planner

Search our weather history database for the weather conditions in past years. The results will help you decide how hot, cold, wet, or windy it might be!

Date:

Astronomy

Mar. 03, 2013 Rise Set
Actual Time 6:50 AM PST 6:01 PM PST
Civil Twilight 6:19 AM PST 6:32 PM PST
Nautical Twilight 5:42 AM PST 7:09 PM PST
Astronomical Twilight 5:06 AM PST 7:45 PM PST
Moon 12:17 AM PST (3/3) 9:37 AM PST (3/3)
Length of Visible Light 12h 13m
Length of Day
11h 10m
Waning Gibbous, 62% of the Moon is Illuminated
Mar 3
Waning Gibbous
Mar 4
Last Quarter
Mar 11
New
Mar 19
First Quarter
Mar 27
Full

Hourly Weather History & Observations

Time (PST) Temp. Windchill Dew Point Humidity Pressure Visibility Wind Dir Wind Speed Gust Speed Precip Events Conditions
12:00 AM 35.6 °F - 28.4 °F 75% 30.19 in 30.0 mi Calm Calm - N/A   Partly Cloudy
1:00 AM 32.0 °F 25.6 °F 28.4 °F 87% 30.19 in 30.0 mi West 6.9 mph - N/A   Partly Cloudy
2:00 AM 33.8 °F 28.6 °F 28.4 °F 81% 30.21 in 30.0 mi West 5.8 mph - N/A   Partly Cloudy
3:00 AM 32.0 °F 26.4 °F 28.4 °F 87% 30.22 in 30.0 mi WNW 5.8 mph - N/A   Partly Cloudy
4:00 AM 31 °F - 28 °F 85% 30.22 in 28 mi West 9.2 mph - -   Scattered Clouds
4:00 AM 32.0 °F 24.8 °F 28.4 °F 87% 30.22 in 30.0 mi West 8.1 mph - N/A   Partly Cloudy
5:00 AM 37.4 °F 32.1 °F 28.4 °F 70% 30.23 in 30.0 mi West 6.9 mph - N/A   Partly Cloudy
6:00 AM 32.0 °F 28.7 °F 26.6 °F 80% 30.25 in 30.0 mi WSW 3.5 mph - N/A   Partly Cloudy
7:00 AM 32.0 °F 27.5 °F 28.4 °F 87% 30.25 in 30.0 mi SW 4.6 mph - N/A   Partly Cloudy
8:00 AM 35.6 °F - 30.2 °F 81% 30.26 in 30.0 mi Calm Calm - N/A   Partly Cloudy
9:00 AM 41.0 °F 39.0 °F 30.2 °F 65% 30.26 in 30.0 mi West 3.5 mph - N/A   Partly Cloudy
10:00 AM 43 °F - 30 °F 48% 30.26 in 28 mi North 2.3 mph - -   Scattered Clouds
10:00 AM 42.8 °F - 30.2 °F 61% 30.26 in 30.0 mi North 2.3 mph - N/A   Partly Cloudy
11:00 AM 46.4 °F - 30.2 °F 53% 30.26 in 30.0 mi East 2.3 mph - N/A   Partly Cloudy
12:00 PM 48.2 °F - 30.2 °F 50% 30.27 in 30.0 mi East 4.6 mph - N/A   Partly Cloudy
1:00 PM 48.2 °F - 30.2 °F 50% 30.27 in 30.0 mi East 8.1 mph - N/A   Partly Cloudy
2:00 PM 48.2 °F - 32.0 °F 54% 30.27 in 30.0 mi East 5.8 mph - N/A   Partly Cloudy
3:00 PM 48.2 °F - 32.0 °F 54% 30.27 in 30.0 mi ENE 9.2 mph - N/A   Partly Cloudy
4:00 PM 49 °F - 31 °F 37% 30.27 in 28 mi NE 6.9 mph - -   Scattered Clouds
4:00 PM 50.0 °F - 30.2 °F 47% 30.27 in 30.0 mi NE 6.9 mph - N/A   Partly Cloudy
5:00 PM 48.2 °F - 32.0 °F 54% 30.28 in 30.0 mi South 5.8 mph - N/A   Scattered Clouds
6:00 PM 46.4 °F 42.9 °F 32.0 °F 57% 30.28 in 30.0 mi SSE 6.9 mph - N/A   Scattered Clouds
7:00 PM 42.8 °F 40.1 °F 32.0 °F 66% 30.30 in 30.0 mi SSE 4.6 mph - N/A   Partly Cloudy
8:00 PM 39.2 °F - 32.0 °F 75% 30.30 in 30.0 mi ESE 2.3 mph - N/A   Partly Cloudy
8:25 PM 35.6 °F - - N/A% - 30.0 mi NNW 2.3 mph - N/A   Partly Cloudy
9:00 PM 35.6 °F 31.7 °F 32.0 °F 87% 30.30 in 30.0 mi SW 4.6 mph - N/A   Partly Cloudy
10:00 PM 36 °F - 31 °F 77% 30.32 in 28 mi SW 3.5 mph - -   Scattered Clouds
10:00 PM 35.6 °F 32.8 °F 32.0 °F 87% 30.32 in 30.0 mi SW 3.5 mph - N/A   Partly Cloudy
11:00 PM 32.0 °F 27.5 °F 30.2 °F 93% 30.32 in 30.0 mi WSW 4.6 mph - N/A   Partly Cloudy